This is the latest recevied weather packets stored in our database for station/object K7NDG. If no packets are shown the sender has not sent any weather packets the latest 10 day(s).
| Time | Temp. | Humidity | Pressure | Rain* | Wind** | Luminosity | Snow |
|---|---|---|---|---|---|---|---|
| 1777140670 | 16.11° C | 42% | 1013.4 hPa | 0 mm | - | 593 W/m² | - |
| 1777140366 | 15.56° C | 40% | 1013.4 hPa | 0 mm | - | 551 W/m² | - |
| 1777140064 | 15.56° C | 43% | 1013.5 hPa | 0 mm | - | 526 W/m² | - |
| 1777139762 | 15.56° C | 44% | 1013.4 hPa | 0 mm | - | 508 W/m² | - |
| 1777139457 | 15° C | 50% | 1013.4 hPa | 0 mm | - | 513 W/m² | - |
| 1777139152 | 15° C | 49% | 1013.6 hPa | 0 mm | - | 505 W/m² | - |
| 1777138850 | 14.44° C | 52% | 1013.6 hPa | 0 mm | - | 499 W/m² | - |
| 1777138545 | 14.44° C | 54% | 1013.6 hPa | 0 mm | - | 498 W/m² | - |
| 1777138242 | 13.89° C | 56% | 1013.4 hPa | 0 mm | - | 478 W/m² | - |
| 1777137938 | 13.89° C | 53% | 1013.6 hPa | 0 mm | - | 491 W/m² | - |
| 1777137634 | 13.33° C | 59% | 1013.6 hPa | 0 mm | - | 444 W/m² | - |
| 1777137332 | 13.33° C | 56% | 1013.6 hPa | 0 mm | - | 456 W/m² | - |
| 1777137028 | 12.78° C | 62% | 1014 hPa | 0 mm | - | 378 W/m² | - |
| 1777136725 | 12.22° C | 64% | 1013.7 hPa | 0 mm | - | 411 W/m² | - |
| 1777136422 | 12.22° C | 63% | 1013.7 hPa | 0 mm | - | 272 W/m² | - |
| 1777136120 | 11.67° C | 66% | 1014.1 hPa | 0 mm | - | 164 W/m² | - |
| 1777135816 | 11.11° C | 69% | 1013.9 hPa | 0 mm | - | 157 W/m² | - |
| 1777135512 | 10.56° C | 70% | 1014.1 hPa | 0 mm | - | 160 W/m² | - |
| 1777135208 | 10.56° C | 70% | 1014.2 hPa | 0 mm | - | 352 W/m² | - |
| 1777134905 | 10° C | 72% | 1014.3 hPa | 0 mm | - | 377 W/m² | - |
| 1777134602 | 10° C | 72% | 1014.2 hPa | 0 mm | - | 368 W/m² | - |
| 1777134298 | 9.44° C | 73% | 1014.1 hPa | 0 mm | - | 354 W/m² | - |
| 1777133995 | 8.89° C | 75% | 1014.2 hPa | 0 mm | - | 333 W/m² | - |
| 1777133691 | 8.89° C | 77% | 1014.2 hPa | 0 mm | - | 269 W/m² | - |
| 1777133390 | 8.89° C | 78% | 1014.3 hPa | 0 mm | - | 267 W/m² | - |
* Rain latest hour (hover to see other rain measurements)
** Current wind speed in m/s (hover to see current wind gust speed)